TimeEDT,TemperatureF,Dew PointF,Humidity,Sea Level PressureIn,VisibilityMPH,Wind Direction,Wind SpeedMPH,Gust SpeedMPH,PrecipitationIn,Events,Conditions,WindDirDegrees,DateUTC
12:15 AM,62.6,60.8,94,29.82,10.0,West,4.6,-,N/A,,Clear,260,2014-04-23 04:15:00
12:35 AM,62.6,60.8,94,29.82,10.0,West,4.6,-,N/A,,Clear,260,2014-04-23 04:35:00
12:55 AM,62.6,60.8,94,29.82,9.0,West,4.6,-,N/A,,Clear,270,2014-04-23 04:55:00
1:15 AM,62.6,60.8,94,29.82,8.0,West,4.6,-,N/A,,Clear,260,2014-04-23 05:15:00
1:35 AM,60.8,60.8,100,29.82,7.0,West,5.8,-,N/A,,Clear,260,2014-04-23 05:35:00
1:55 AM,60.8,60.8,100,29.81,6.0,West,4.6,-,N/A,,Clear,260,2014-04-23 05:55:00
2:15 AM,60.8,60.8,100,29.80,5.0,West,3.5,-,N/A,,Clear,270,2014-04-23 06:15:00
2:35 AM,60.8,60.8,100,29.80,5.0,West,4.6,-,N/A,,Clear,270,2014-04-23 06:35:00
2:55 AM,60.8,60.8,100,29.80,5.0,West,5.8,-,N/A,,Clear,260,2014-04-23 06:55:00
3:15 AM,60.8,60.8,100,29.80,4.0,West,4.6,-,N/A,,Clear,270,2014-04-23 07:15:00
3:35 AM,60.8,59.0,94,29.79,4.0,West,3.5,-,N/A,,Clear,270,2014-04-23 07:35:00
3:55 AM,59.0,59.0,100,29.79,3.0,WSW,4.6,-,N/A,,Clear,250,2014-04-23 07:55:00
4:15 AM,59.0,59.0,100,29.79,3.0,West,5.8,-,N/A,,Clear,260,2014-04-23 08:15:00
4:35 AM,59.0,59.0,100,29.80,3.0,WSW,3.5,-,N/A,,Clear,250,2014-04-23 08:35:00
4:55 AM,59.0,57.2,94,29.80,1.8,WSW,3.5,-,N/A,,Clear,250,2014-04-23 08:55:00
5:15 AM,57.2,57.2,100,29.80,1.8,WSW,4.6,-,N/A,,Clear,250,2014-04-23 09:15:00
5:35 AM,57.2,57.2,100,29.81,1.2,Calm,Calm,-,N/A,,Clear,0,2014-04-23 09:35:00
5:55 AM,57.2,57.2,100,29.82,0.5,Calm,Calm,-,N/A,Fog,Fog,0,2014-04-23 09:55:00
6:15 AM,55.4,55.4,100,29.82,0.2,Calm,Calm,-,N/A,Fog,Fog,0,2014-04-23 10:15:00
6:35 AM,55.4,55.4,100,29.83,0.2,Calm,Calm,-,N/A,Fog,Fog,0,2014-04-23 10:35:00
6:55 AM,55.4,55.4,100,29.84,0.2,Calm,Calm,-,N/A,Fog,Fog,0,2014-04-23 10:55:00
7:15 AM,55.4,55.4,100,29.84,0.2,Calm,Calm,-,N/A,Fog,Fog,0,2014-04-23 11:15:00
7:35 AM,57.2,57.2,100,29.85,0.5,Calm,Calm,-,N/A,Fog,Fog,0,2014-04-23 11:35:00
7:55 AM,59.0,59.0,100,29.86,1.0,Calm,Calm,-,N/A,,Mostly Cloudy,0,2014-04-23 11:55:00
8:15 AM,60.8,60.8,100,29.87,2.0,Calm,Calm,-,N/A,,Scattered Clouds,0,2014-04-23 12:15:00
8:35 AM,60.8,60.8,100,29.88,3.0,NW,3.5,-,N/A,,Partly Cloudy,310,2014-04-23 12:35:00
8:55 AM,62.6,62.6,100,29.88,5.0,WNW,6.9,-,N/A,,Partly Cloudy,300,2014-04-23 12:55:00
9:15 AM,64.4,62.6,94,29.89,8.0,West,6.9,-,N/A,,Clear,280,2014-04-23 13:15:00
9:35 AM,66.2,62.6,88,29.89,9.0,NW,6.9,-,N/A,,Clear,310,2014-04-23 13:35:00
9:55 AM,69.8,60.8,73,29.90,10.0,NW,5.8,-,N/A,,Clear,320,2014-04-23 13:55:00
10:15 AM,69.8,60.8,73,29.91,10.0,NW,8.1,-,N/A,,Clear,320,2014-04-23 14:15:00
10:35 AM,71.6,59.0,64,29.91,10.0,NNW,5.8,-,N/A,,Clear,340,2014-04-23 14:35:00
10:55 AM,73.4,57.2,57,29.91,10.0,NW,5.8,-,N/A,,Clear,320,2014-04-23 14:55:00
11:15 AM,73.4,55.4,53,29.91,10.0,North,3.5,-,N/A,,Clear,10,2014-04-23 15:15:00
11:35 AM,73.4,55.4,53,29.90,10.0,NNE,8.1,-,N/A,,Clear,20,2014-04-23 15:35:00
11:55 AM,75.2,53.6,47,29.90,10.0,NNW,4.6,-,N/A,,Clear,330,2014-04-23 15:55:00
12:15 PM,77.0,53.6,44,29.89,10.0,West,4.6,-,N/A,,Clear,270,2014-04-23 16:15:00
12:35 PM,78.8,53.6,42,29.88,10.0,NW,4.6,-,N/A,,Clear,320,2014-04-23 16:35:00
12:55 PM,78.8,51.8,39,29.87,10.0,WSW,5.8,-,N/A,,Clear,250,2014-04-23 16:55:00
1:15 PM,80.6,51.8,37,29.87,10.0,West,10.4,-,N/A,,Clear,260,2014-04-23 17:15:00
1:35 PM,80.6,48.2,32,29.87,10.0,Calm,Calm,-,N/A,,Clear,0,2014-04-23 17:35:00
1:55 PM,80.6,48.2,32,29.86,10.0,Calm,Calm,-,N/A,,Clear,0,2014-04-23 17:55:00
2:15 PM,82.4,51.8,35,29.86,10.0,WNW,10.4,-,N/A,,Clear,300,2014-04-23 18:15:00
2:35 PM,82.4,50.0,32,29.86,10.0,West,6.9,-,N/A,,Clear,260,2014-04-23 18:35:00
2:55 PM,82.4,48.2,30,29.85,10.0,NW,5.8,-,N/A,,Clear,310,2014-04-23 18:55:00
3:15 PM,82.4,48.2,30,29.84,10.0,WSW,9.2,-,N/A,,Clear,250,2014-04-23 19:15:00
3:35 PM,82.4,48.2,30,29.84,10.0,West,8.1,-,N/A,,Clear,280,2014-04-23 19:35:00
3:55 PM,82.4,46.4,28,29.83,10.0,NW,5.8,-,N/A,,Clear,310,2014-04-23 19:55:00
4:35 PM,84.2,46.4,27,29.83,10.0,West,5.8,16.1,N/A,,Clear,280,2014-04-23 20:35:00
4:55 PM,84.2,46.4,27,29.82,10.0,West,6.9,-,N/A,,Clear,270,2014-04-23 20:55:00
5:15 PM,82.4,44.6,26,29.82,10.0,WSW,6.9,-,N/A,,Clear,240,2014-04-23 21:15:00
5:35 PM,82.4,46.4,28,29.83,10.0,WNW,5.8,-,N/A,,Clear,290,2014-04-23 21:35:00
5:55 PM,84.2,46.4,27,29.83,10.0,Calm,Calm,-,N/A,,Clear,0,2014-04-23 21:55:00
6:15 PM,82.4,44.6,26,29.83,10.0,West,6.9,-,N/A,,Clear,270,2014-04-23 22:15:00
6:35 PM,82.4,42.8,25,29.83,10.0,West,6.9,-,N/A,,Clear,260,2014-04-23 22:35:00
6:55 PM,80.6,42.8,26,29.84,10.0,WSW,6.9,-,N/A,,Clear,250,2014-04-23 22:55:00
7:15 PM,80.6,44.6,28,29.84,10.0,West,4.6,-,N/A,,Clear,260,2014-04-23 23:15:00
7:55 PM,73.4,48.2,41,29.85,10.0,West,3.5,-,N/A,,Clear,270,2014-04-23 23:55:00
8:15 PM,71.6,48.2,43,29.86,10.0,Calm,Calm,-,N/A,,Clear,0,2014-04-24 00:15:00
8:55 PM,66.2,48.2,52,29.88,10.0,Calm,Calm,-,N/A,,Clear,0,2014-04-24 00:55:00
9:15 PM,64.4,50.0,59,29.89,10.0,Calm,Calm,-,N/A,,Clear,0,2014-04-24 01:15:00
9:35 PM,62.6,51.8,68,29.90,10.0,Calm,Calm,-,N/A,,Clear,0,2014-04-24 01:35:00
9:55 PM,62.6,51.8,68,29.91,10.0,North,3.5,-,N/A,,Clear,350,2014-04-24 01:55:00
10:15 PM,62.6,51.8,68,29.91,10.0,Calm,Calm,-,N/A,,Clear,0,2014-04-24 02:15:00
10:35 PM,60.8,51.8,72,29.92,10.0,Calm,Calm,-,N/A,,Clear,0,2014-04-24 02:35:00
10:55 PM,60.8,51.8,72,29.92,10.0,Calm,Calm,-,N/A,,Clear,0,2014-04-24 02:55:00
11:15 PM,60.8,48.2,63,29.93,10.0,Calm,Calm,-,N/A,,Clear,0,2014-04-24 03:15:00
11:35 PM,57.2,48.2,72,29.93,10.0,Calm,Calm,-,N/A,,Clear,0,2014-04-24 03:35:00
11:55 PM,57.2,48.2,72,29.93,10.0,Calm,Calm,-,N/A,,Clear,0,2014-04-24 03:55:00